This is the latest recevied weather packets stored in our database for station/object W4TJP. If no packets are shown the sender has not sent any weather packets the latest 10 day(s).
| Time | Temp. | Humidity | Pressure | Rain* | Wind** | Luminosity | Snow |
|---|---|---|---|---|---|---|---|
| 1778007373 | 21.11° C | 55% | 1012.1 hPa | 0 mm | - | 159 W/m² | - |
| 1778007069 | 21.11° C | 55% | 1012.2 hPa | 0 mm | - | 260 W/m² | - |
| 1778006766 | 21.11° C | 60% | 1012.2 hPa | 0 mm | - | 197 W/m² | - |
| 1778006463 | 21.11° C | 57% | 1012.4 hPa | 0 mm | - | 185 W/m² | - |
| 1778006159 | 21.11° C | 57% | 1012.3 hPa | 0 mm | - | 247 W/m² | - |
| 1778005857 | 21.11° C | 57% | 1012.2 hPa | 0 mm | - | 311 W/m² | - |
| 1778005553 | 20.56° C | 57% | 1012.3 hPa | 0 mm | - | 200 W/m² | - |
| 1778005250 | 21.11° C | 56% | 1012.5 hPa | 0 mm | - | 226 W/m² | - |
| 1778004947 | 21.11° C | 56% | 1012.5 hPa | 0 mm | - | 243 W/m² | - |
| 1778004644 | 21.11° C | 57% | 1012.6 hPa | 0 mm | - | 187 W/m² | - |
| 1778004339 | 21.11° C | 56% | 1012.7 hPa | 0 mm | - | 194 W/m² | - |
| 1778004038 | 21.67° C | 55% | 1012.7 hPa | 0 mm | - | 219 W/m² | - |
| 1778003738 | 21.67° C | 56% | 1012.8 hPa | 0 mm | - | 306 W/m² | - |
| 1778003435 | 21.67° C | 55% | 1013.1 hPa | 0 mm | - | 320 W/m² | - |
| 1778003132 | 21.67° C | 55% | 1012.9 hPa | 0 mm | - | 411 W/m² | - |
| 1778002828 | 22.22° C | 54% | 1012.8 hPa | 0 mm | - | 358 W/m² | - |
| 1778002525 | 22.22° C | 56% | 1012.9 hPa | 0 mm | - | 481 W/m² | - |
| 1778002222 | 21.67° C | 57% | 1013.3 hPa | 0 mm | - | 336 W/m² | - |
| 1778001920 | 21.67° C | 55% | 1013.2 hPa | 0 mm | - | 400 W/m² | - |
| 1778001615 | 21.11° C | 57% | 1013.5 hPa | 0 mm | - | 426 W/m² | - |
| 1778001311 | 21.67° C | 56% | 1013.5 hPa | 0 mm | - | 352 W/m² | - |
| 1778001008 | 21.67° C | 56% | 1013.6 hPa | 0 mm | - | 306 W/m² | - |
| 1778000705 | 21.67° C | 57% | 1013.6 hPa | 0 mm | - | 397 W/m² | - |
| 1778000400 | 21.11° C | 57% | 1013.8 hPa | 0 mm | - | 504 W/m² | - |
| 1778000096 | 20.56° C | 58% | 1013.6 hPa | 0 mm | - | 452 W/m² | - |
* Rain latest hour (hover to see other rain measurements)
** Current wind speed in m/s (hover to see current wind gust speed)